Ballina Observation History
Time Wind Speed Temp Pressure Rel. Hum Rain
16/11:00pm ESE 5-8 kts 22.4°c 1012.5 hPa 65% 0.0mm
16/10:30pm ESE 6-8 kts 22.7°c 1012.6 hPa 63% 0.0mm
16/10:00pm ESE 6-8 kts 23.1°c 1012.5 hPa 61% 0.0mm
16/09:30pm ESE 5-7 kts 23.7°c 1012.2 hPa 57% 0.0mm
16/09:00pm ESE 7-9 kts 23.7°c 1011.8 hPa 55% 0.0mm
16/08:30pm ESE 7-11 kts 23.8°c 1011.3 hPa 57% 0.0mm
16/08:00pm SE 7-11 kts 24.0°c 1011.0 hPa 58% 0.0mm
16/07:30pm SE 8-11 kts 24.0°c 1010.2 hPa 60% 0.0mm
16/07:00pm ESE 8-14 kts 24.5°c 1009.9 hPa 60% 0.0mm
16/06:30pm ESE 9-14 kts 24.8°c 1009.0 hPa 58% 0.0mm
16/06:00pm ESE 9-13 kts 25.3°c 1008.6 hPa 59% 0.0mm
16/05:30pm ESE 11-16 kts 26.0°c 1008.2 hPa 55% 0.0mm
16/05:00pm ESE 10-15 kts 26.4°c 1008.0 hPa 55% 0.0mm
16/04:30pm SE 12-17 kts 26.7°c 1007.9 hPa 54% 0.0mm
16/04:00pm SSE 12-18 kts 27.3°c 1007.8 hPa 54% 0.0mm
16/03:30pm SE 9-14 kts 25.8°c 1007.6 hPa 61% 0.0mm
16/03:00pm SSE 11-15 kts 25.7°c 1007.9 hPa 59% 0.0mm
16/02:30pm SSE 13-17 kts 27.1°c 1007.6 hPa 60% 0.0mm
16/02:00pm SE 13-19 kts 27.3°c 1007.9 hPa 59% 0.0mm
16/01:30pm SSE 13-17 kts 27.5°c 1008.0 hPa 59% 0.0mm
16/01:00pm S 12-19 kts 27.7°c 1008.0 hPa 65% 0.0mm
16/12:30pm SSW 13-17 kts 27.0°c 1008.0 hPa 66% 0.0mm
16/12:00pm SSW 12-17 kts 26.7°c 1007.9 hPa 72% 0.0mm
16/11:30am S 14-20 kts 26.2°c 1008.0 hPa 75% 0.0mm
16/11:00am S 15-21 kts 25.8°c 1007.7 hPa 72% 0.0mm
16/10:30am SW 12-17 kts 29.6°c 1007.2 hPa 61% 0.0mm
16/10:00am WSW 8-11 kts 28.8°c 1006.8 hPa 63% 0.0mm
16/09:30am SW 5-8 kts 27.7°c 1007.0 hPa 70% 0.0mm
16/09:00am WSW 6-8 kts 26.6°c 1006.8 hPa 73% 10.8mm
16/08:30am NNW 1-4 kts 25.9°c 1006.6 hPa 76% 10.8mm
16/08:00am NNW 5-6 kts 24.8°c 1006.7 hPa 78% 10.8mm
16/07:30am NW 4-7 kts 24.3°c 1006.1 hPa 84% 10.8mm
16/07:00am N 5-7 kts 23.3°c 1005.8 hPa 88% 10.8mm
16/06:30am N 6-9 kts 22.7°c 1005.4 hPa 90% 10.8mm
16/06:00am N 7-10 kts 22.5°c 1004.9 hPa 91% 10.8mm
16/05:30am N 5-8 kts 22.4°c 1004.7 hPa 90% 10.8mm
16/05:00am N 6-8 kts 22.4°c 1004.6 hPa 90% 10.8mm
16/04:30am NNE 6-8 kts 22.1°c 1004.3 hPa 89% 10.8mm
16/04:00am N 7-11 kts 22.1°c 1004.6 hPa 87% 10.8mm
16/03:30am NNE 8-11 kts 22.3°c 1004.2 hPa 91% 10.8mm
16/03:00am NE 7-9 kts 22.6°c 1004.5 hPa 90% 10.8mm
16/02:30am N 10-15 kts 22.9°c 1005.2 hPa 89% 10.8mm
16/02:00am N 13-18 kts 22.9°c 1005.0 hPa 89% 10.8mm
16/01:30am N 11-15 kts 22.9°c 1005.0 hPa 92% 10.8mm
16/01:00am N 10-17 kts 22.8°c 1005.1 hPa 92% 10.8mm
16/12:30am N 12-18 kts 22.7°c 1004.8 hPa 93% 10.6mm
16/12:00am NNE 12-16 kts 22.6°c 1004.7 hPa 93% 10.6mm
Time Wind Speed Temp Pressure Rel. Hum Rain
15/11:35pm NE 13-16 kts 22.7°c 1005.4 hPa 94% 10.0mm
15/11:30pm NE 12-15 kts 22.6°c 1006.0 hPa 94% 10.0mm
15/11:24pm NE 9-12 kts 22.6°c 1007.0 hPa 94% 9.8mm
15/11:00pm WSW 8-11 kts 23.1°c 1008.2 hPa 89% 3.2mm
15/10:40pm WSW 8-13 kts 24.8°c 1007.6 hPa 81% 0.8mm
15/10:37pm SW 9-13 kts 25.0°c 1007.5 hPa 79% 0.6mm
15/10:30pm SW 10-15 kts 25.4°c 1007.6 hPa 77% 0.0mm
15/10:26pm SW 11-18 kts 25.3°c 1007.3 hPa 77% 0.0mm
15/10:00pm N 14-20 kts 25.1°c 1005.3 hPa 78% 0.0mm
15/09:30pm NNE 13-21 kts 25.2°c 1005.2 hPa 79% 0.0mm
15/09:00pm NNE 17-25 kts 25.2°c 1004.1 hPa 78% 0.0mm
15/08:30pm NNE 16-23 kts 25.3°c 1004.5 hPa 78% 0.0mm
15/08:03pm NNE 15-25 kts 25.4°c 1004.5 hPa 77% 0.0mm
15/08:00pm NNE 15-23 kts 25.3°c 1004.4 hPa 77% 0.0mm
15/07:30pm NNE 15-22 kts 25.6°c 1004.0 hPa 75% 0.0mm
15/07:06pm NNE 15-25 kts 26.3°c 1004.0 hPa 71% 0.0mm
15/07:00pm NNE 16-25 kts 26.4°c 1004.1 hPa 70% 0.0mm
15/06:30pm NNE 16-27 kts 27.3°c 1003.6 hPa 64% 0.0mm
15/06:12pm N 16-26 kts 27.5°c 1003.6 hPa 58% 0.0mm
15/06:00pm NNE 18-26 kts 27.8°c 1003.5 hPa 59% 0.0mm
15/05:47pm NNE 15-26 kts 27.8°c 1003.5 hPa 61% 0.0mm
15/05:30pm NNE 14-24 kts 28.3°c 1003.8 hPa 63% 0.0mm
15/05:12pm NNE 15-25 kts 28.6°c 1004.0 hPa 62% 0.0mm
15/05:00pm NNE 16-22 kts 28.7°c 1004.1 hPa 62% 0.0mm
15/04:30pm N 15-20 kts 28.9°c 1004.5 hPa 60% 0.0mm
15/04:00pm NNE 17-22 kts 29.6°c 1004.9 hPa 58% 0.0mm
15/03:30pm NNE 15-22 kts 29.9°c 1005.1 hPa 55% 0.0mm
15/03:00pm N 15-21 kts 30.0°c 1005.6 hPa 55% 0.0mm
15/02:30pm NNE 14-19 kts 29.4°c 1006.0 hPa 55% 0.0mm
15/02:00pm NNE 12-17 kts 30.6°c 1006.2 hPa 58% 0.0mm
15/01:30pm N 10-15 kts 29.7°c 1006.7 hPa 55% 0.0mm
15/01:00pm NNE 13-16 kts 29.6°c 1007.2 hPa 58% 0.0mm
15/12:30pm N 11-17 kts 29.1°c 1007.8 hPa 58% 0.0mm
15/12:00pm N 12-16 kts 28.5°c 1008.1 hPa 57% 0.0mm
15/11:30am NE 14-19 kts 28.4°c 1008.5 hPa 61% 0.0mm
15/11:00am NE 14-17 kts 28.0°c 1008.8 hPa 60% 0.0mm
15/10:30am ENE 10-13 kts 27.6°c 1009.1 hPa 61% 0.0mm
15/10:00am NE 7-10 kts 27.0°c 1009.3 hPa 65% 0.0mm
15/09:30am NE 8-11 kts 26.6°c 1009.3 hPa 64% 0.0mm
15/09:00am NE 6-9 kts 25.6°c 1009.2 hPa 67% 0.0mm
15/08:30am N 5-6 kts 24.7°c 1009.4 hPa 73% 0.0mm
15/08:00am N 2-6 kts 23.9°c 1009.8 hPa 81% 0.0mm
15/07:30am NW 1-3 kts 21.8°c 1009.8 hPa 85% 0.0mm
15/07:00am CALM 0 kts 20.7°c 1009.6 hPa 94% 0.0mm
15/06:30am WSW 3-5 kts 19.8°c 1009.5 hPa 95% 0.0mm
15/06:00am WSW 6-8 kts 19.6°c 1009.0 hPa 95% 0.0mm
15/05:51am W 5-6 kts 19.4°c 1008.8 hPa 95% 0.0mm
15/05:34am CALM 0 kts 19.2°c 1008.4 hPa 94% 0.0mm
15/05:30am CALM 0 kts 19.2°c 1008.3 hPa 94% 0.0mm
15/05:28am CALM 0 kts 19.4°c 1008.3 hPa 94% 0.0mm
15/05:09am CALM 0 kts 19.6°c 1008.2 hPa 94% 0.0mm
15/05:00am CALM 0 kts 19.7°c 1008.3 hPa 94% 0.0mm
15/04:30am N 3-4 kts 20.4°c 1008.3 hPa 93% 0.0mm
15/04:00am N 3-4 kts 20.3°c 1008.3 hPa 93% 0.0mm
15/03:30am N 3-4 kts 20.6°c 1008.5 hPa 92% 0.0mm
15/03:00am N 3-4 kts 20.9°c 1008.8 hPa 91% 0.0mm
15/02:30am NNW 3-4 kts 21.1°c 1009.1 hPa 92% 0.0mm
15/02:00am N 4-5 kts 21.0°c 1009.3 hPa 90% 0.0mm
15/01:30am N 4-5 kts 21.4°c 1009.5 hPa 90% 0.0mm
15/01:00am N 5-7 kts 21.2°c 1009.8 hPa 90% 0.0mm
15/12:30am N 5-6 kts 21.3°c 1010.3 hPa 90% 0.0mm
15/12:00am N 4-6 kts 21.6°c 1010.9 hPa 90% 0.0mm
Time Wind Speed Temp Pressure Rel. Hum Rain
14/11:30pm NNW 4-6 kts 21.9°c 1010.9 hPa 89% 0.0mm
14/11:00pm N 5-7 kts 21.6°c 1010.8 hPa 88% 0.0mm
14/10:30pm N 5-6 kts 21.8°c 1011.1 hPa 87% 0.0mm
14/10:00pm N 3-5 kts 22.2°c 1011.1 hPa 84% 0.0mm
14/09:30pm N 5-8 kts 22.7°c 1011.1 hPa 83% 0.0mm
14/09:00pm NNE 6-8 kts 22.8°c 1010.9 hPa 79% 0.0mm
14/08:30pm NNE 6-8 kts 23.1°c 1011.1 hPa 80% 0.0mm
14/08:00pm NE 7-9 kts 23.4°c 1010.8 hPa 78% 0.0mm
14/07:30pm NE 8-11 kts 24.2°c 1010.7 hPa 74% 0.0mm
14/07:00pm NE 9-13 kts 25.0°c 1010.6 hPa 68% 0.0mm
14/06:30pm NE 10-14 kts 25.4°c 1010.5 hPa 65% 0.0mm
14/06:00pm ENE 11-16 kts 25.9°c 1010.3 hPa 66% 0.0mm
14/05:30pm ENE 13-17 kts 26.2°c 1010.2 hPa 61% 0.0mm
14/05:00pm ENE 11-14 kts 27.1°c 1010.5 hPa 65% 0.0mm
14/04:30pm ENE 13-17 kts 26.6°c 1010.7 hPa 62% 0.0mm
14/04:00pm E 11-15 kts 26.8°c 1011.1 hPa 66% 0.0mm
14/03:30pm E 11-15 kts 26.9°c 1011.3 hPa 63% 0.0mm
14/03:00pm ESE 11-14 kts 27.1°c 1011.6 hPa 61% 0.0mm
14/02:30pm E 9-13 kts 27.2°c 1011.8 hPa 60% 0.0mm
14/02:00pm ENE 11-13 kts 27.6°c 1011.9 hPa 57% 0.0mm
14/01:30pm E 9-12 kts 27.6°c 1012.3 hPa 59% 0.0mm
14/01:00pm E 9-12 kts 27.3°c 1012.6 hPa 51% 0.0mm
14/12:30pm SE 8-10 kts 27.2°c 1013.0 hPa 58% 0.0mm
14/12:00pm ESE 7-11 kts 27.1°c 1013.5 hPa 60% 0.0mm
14/11:30am ESE 7-11 kts 27.2°c 1013.7 hPa 56% 0.0mm
14/11:00am WSW 5-9 kts 27.0°c 1013.8 hPa 63% 0.0mm
14/10:30am E 4-8 kts 27.5°c 1014.0 hPa 59% 0.0mm
14/10:00am S 2-4 kts 26.4°c 1014.0 hPa 63% 0.0mm
14/09:30am E 5-9 kts 25.4°c 1014.0 hPa 66% 0.0mm
14/09:00am SW 4-6 kts 24.6°c 1014.2 hPa 70% 0.0mm
14/08:30am WSW 5-6 kts 23.5°c 1014.5 hPa 78% 0.0mm
14/08:00am WSW 5-7 kts 22.4°c 1014.5 hPa 84% 0.0mm
14/07:30am WSW 3-5 kts 20.8°c 1014.2 hPa 88% 0.0mm
14/07:00am CALM 0 kts 19.7°c 1014.0 hPa 93% 0.0mm
14/06:30am CALM 0 kts 18.8°c 1013.8 hPa 95% 0.0mm
14/06:00am CALM 0 kts 18.3°c 1013.6 hPa 95% 0.0mm
14/05:30am W 1-3 kts 18.6°c 1013.5 hPa 94% 0.0mm
14/05:00am CALM 0 kts 19.0°c 1013.6 hPa 94% 0.0mm
14/04:30am CALM 0 kts 19.2°c 1013.7 hPa 93% 0.0mm
14/04:00am SW 1-3 kts 19.5°c 1013.7 hPa 92% 0.0mm
14/03:30am SW 2-4 kts 19.5°c 1013.8 hPa 92% 0.0mm
14/03:00am WSW 3 kts 19.8°c 1013.9 hPa 93% 0.0mm
14/02:30am CALM 0 kts 20.1°c 1014.1 hPa 93% 0.0mm
14/02:00am CALM 0 kts 20.0°c 1014.6 hPa 92% 0.0mm
14/01:30am WNW 1-4 kts 19.4°c 1014.8 hPa 91% 0.0mm
14/01:00am CALM 0 kts 20.3°c 1015.1 hPa 90% 0.0mm
14/12:30am N 4-5 kts 20.8°c 1015.4 hPa 90% 0.0mm
14/12:00am N 4-5 kts 21.3°c 1015.7 hPa 89% 0.0mm